CW3224 Weather Reports


time (UTC)temp
F
wind
direction
speed
knots
gust
knots
rain 1hr
in
rain 24hr
in
rain mn
in
humidity
%
barometer
mb
20260507040434 56 301 0.0 0.0 0.02 0.22 0.00 92 1006.7
20260507035430 56 296 0.0 0.0 0.02 0.22 0.22 93 1006.5
20260507034430 56 301 0.9 2.6 0.01 0.21 0.21 93 1006.2
20260507033432 57 271 0.0 0.0 0.00 0.20 0.20 93 1006.2
20260507032431 57 270 0.0 1.7 0.01 0.20 0.20 93 1006.0
20260507031431 57 270 0.9 3.5 0.01 0.20 0.20 93 1005.5
20260507030429 58 301 0.9 5.2 0.01 0.20 0.20 93 1005.5
20260507025429 58 301 0.0 4.3 0.01 0.20 0.20 93 1005.5
20260507024429 58 301 0.0 0.0 0.01 0.20 0.20 93 1005.5
20260507023428 58 198 1.7 4.3 0.01 0.20 0.20 93 1005.5
20260507022430 58 184 0.9 2.6 0.00 0.19 0.19 93 1005.5
20260507021426 58 183 0.0 2.6 0.00 0.19 0.19 93 1005.1
20260507020903 58 197 0.9 3.5 0.00 0.19 0.19 93 1005.1
20260507015426 58 203 0.0 2.6 0.00 0.19 0.19 93 1005.4
20260507014904 58 202 0.9 3.5 0.00 0.19 0.19 93 1005.3
20260507013426 58 204 0.9 3.5 0.00 0.19 0.19 93 1005.3
20260507012428 58 195 1.7 5.2 0.00 0.19 0.19 93 1005.3
20260507011844 58 217 2.6 7.0 0.00 0.19 0.19 93 1005.4
20260507011452 58 185 2.6 6.1 0.00 0.19 0.19 93 1005.4
20260507005415 58 189 2.6 6.1 0.00 0.19 0.19 93 1005.5
20260507004416 58 156 2.6 7.8 0.00 0.19 0.19 93 1005.2
20260507003416 58 190 2.6 8.7 0.00 0.19 0.19 93 1005.2
20260507002416 58 231 1.7 6.1 0.00 0.19 0.19 93 1005.0
20260507001417 58 194 1.7 5.2 0.00 0.19 0.19 92 1005.2
20260507000414 58 200 1.7 7.8 0.01 0.19 0.19 93 1005.2
20260506235414 58 167 1.7 4.3 0.02 0.19 0.19 92 1005.0
20260506234414 58 177 1.7 6.1 0.03 0.19 0.19 92 1005.0
20260506233415 58 206 1.7 6.1 0.04 0.19 0.19 92 1005.0
20260506232415 58 202 1.7 4.3 0.05 0.19 0.19 92 1005.0
20260506231415 58 198 2.6 7.0 0.06 0.19 0.19 92 1005.0
20260506230415 58 218 2.6 6.1 0.07 0.18 0.19 92 1005.0
20260506225415 58 158 2.6 6.1 0.08 0.17 0.17 92 1005.1
20260506225346 58 202 2.6 6.1 0.08 0.16 0.16 91 1005.1
20260506223414 59 193 2.6 7.0 0.09 0.15 0.15 92 1005.1
20260506222854 59 206 3.5 11.3 0.08 0.14 0.14 91 1005.2
20260506221413 59 172 2.6 7.0 0.07 0.13 0.13 91 1005.4
20260506220414 59 183 3.5 8.7 0.05 0.11 0.11 91 1005.4
20260506215414 59 148 4.3 8.7 0.03 0.09 0.09 90 1005.5
20260506214415 59 200 3.5 8.7 0.02 0.08 0.08 90 1005.5
20260506213413 60 301 2.6 7.0 0.00 0.06 0.06 90 1005.5
20260506212414 60 301 3.5 10.4 0.01 0.06 0.06 90 1005.6
20260506211411 60 301 3.5 9.6 0.01 0.06 0.06 90 1005.7
20260506210412 60 212 3.5 7.8 0.02 0.06 0.06 89 1005.7
20260506205412 60 207 2.6 9.6 0.03 0.06 0.06 89 1006.0
20260506204413 60 201 3.5 10.4 0.03 0.06 0.06 89 1006.0
20260506203402 60 301 4.3 11.3 0.03 0.06 0.06 88 1006.0
20260506202404 61 195 3.5 8.7 0.02 0.05 0.05 88 1006.1
20260506201359 61 301 4.3 10.4 0.03 0.05 0.05 87 1006.1
20260506200401 62 301 4.3 8.7 0.02 0.04 0.04 87 1006.1
20260506195352 62 135 4.3 9.6 0.01 0.03 0.03 86 1006.0
20260506194353 62 216 3.5 7.8 0.02 0.03 0.03 86 1006.1
20260506193835 63 210 1.7 8.7 0.03 0.03 0.03 86 1006.1
20260506192829 63 251 2.6 7.0 0.03 0.03 0.03 85 1006.1
20260506191352 63 212 3.5 9.6 0.02 0.02 0.02 84 1006.1
20260506190351 64 196 2.6 9.6 0.02 0.02 0.02 83 1006.1
20260506185351 65 195 4.3 10.4 0.02 0.02 0.02 81 1006.3
20260506184352 66 200 3.5 9.6 0.01 0.01 0.01 78 1006.5
20260506183826 67 199 3.5 8.7 0.00 0.00 0.01 76 1006.5
20260506182349 68 253 2.6 10.4 0.00 0.00 0.00 72 1006.5
20260506181349 69 212 3.5 7.8 0.00 0.00 0.00 70 1006.5
20260506180831 70 225 6.1 16.5 0.00 0.00 0.00 66 1006.5
20260506175351 70 211 5.2 16.5 0.00 0.00 0.00 65 1006.5
20260506174348 71 301 6.1 16.5 0.00 0.00 0.00 63 1006.5
20260506173347 72 208 6.1 13.9 0.00 0.00 0.00 61 1006.5
20260506172345 72 301 4.3 14.8 0.00 0.00 0.00 60 1006.5
20260506171346 72 126 3.5 10.4 0.00 0.00 0.00 61 1006.5
20260506170346 72 199 4.3 9.6 0.00 0.00 0.00 62 1006.5
20260506165344 72 208 3.5 9.6 0.00 0.00 0.00 63 1006.7
20260506164344 71 301 4.3 13.0 0.00 0.00 0.00 64 1007.0
20260506163343 70 233 5.2 10.4 0.00 0.00 0.00 64 1007.0
20260506162341 70 218 5.2 13.0 0.00 0.00 0.00 64 1007.2
20260506161342 70 226 6.1 12.2 0.00 0.00 0.00 65 1007.5
20260506160341 70 232 4.3 14.8 0.00 0.00 0.00 66 1007.5
20260506155816 69 190 4.3 10.4 0.00 0.00 0.00 67 1007.7
20260506154341 69 219 4.3 13.0 0.00 0.00 0.00 68 1008.0
20260506153342 69 301 4.3 12.2 0.00 0.00 0.00 69 1008.0
20260506153316 69 301 3.5 11.3 0.00 0.00 0.00 70 1008.2
20260506151339 68 301 5.2 11.3 0.00 0.00 0.00 69 1008.4
20260506150339 68 301 4.3 11.3 0.00 0.00 0.00 70 1008.4
20260506145818 68 301 4.3 11.3 0.00 0.00 0.00 70 1008.6
20260506144339 68 148 4.3 11.3 0.00 0.00 0.00 70 1008.5
20260506143340 68 301 4.3 10.4 0.00 0.00 0.00 69 1008.5
20260506142341 68 220 4.3 11.3 0.00 0.00 0.00 71 1008.2
20260506141326 68 195 5.2 13.9 0.00 0.00 0.00 71 1008.1
20260506140325 68 230 5.2 13.9 0.00 0.00 0.00 73 1008.1
20260506135325 67 301 4.3 13.9 0.00 0.00 0.00 73 1008.2
20260506134326 67 301 4.3 12.2 0.00 0.00 0.00 74 1008.5
20260506133326 66 247 4.3 11.3 0.00 0.00 0.00 74 1008.5
20260506132327 65 218 6.1 13.0 0.00 0.00 0.00 76 1008.7
20260506131325 65 143 4.3 11.3 0.00 0.00 0.00 76 1008.9
20260506130326 64 245 4.3 11.3 0.00 0.00 0.00 76 1008.9
20260506125324 64 231 5.2 12.2 0.00 0.00 0.00 77 1008.8
20260506124323 64 183 6.1 13.9 0.00 0.00 0.00 77 1008.6
20260506123324 63 301 5.2 12.2 0.00 0.00 0.00 78 1008.6
20260506122322 62 301 4.3 9.6 0.00 0.00 0.00 79 1008.7
20260506121321 62 301 4.3 12.2 0.00 0.00 0.00 79 1008.8
20260506120321 62 219 5.2 13.0 0.00 0.00 0.00 79 1008.8
20260506115322 61 301 4.3 11.3 0.00 0.00 0.00 81 1009.2
20260506114322 61 194 3.5 8.7 0.00 0.00 0.00 81 1009.2
20260506113314 60 211 3.5 9.6 0.00 0.00 0.00 81 1009.2
20260506112756 60 183 3.5 8.7 0.00 0.00 0.00 81 1009.4
20260506111315 60 198 3.5 8.7 0.00 0.00 0.00 81 1009.2
20260506110746 60 202 3.5 8.7 0.00 0.00 0.00 82 1009.2
20260506105316 59 209 3.5 11.3 0.00 0.00 0.00 83 1009.2
20260506104801 59 187 3.5 8.7 0.00 0.00 0.00 83 1009.2
20260506103315 58 198 3.5 6.1 0.00 0.00 0.00 83 1009.2
20260506102313 58 196 3.5 7.8 0.00 0.00 0.00 82 1009.1
20260506101313 59 180 2.6 7.0 0.00 0.00 0.00 81 1009.2
20260506100314 59 199 2.6 9.6 0.00 0.00 0.00 81 1009.2
20260506095310 59 191 2.6 7.0 0.00 0.00 0.00 80 1009.2
20260506094312 59 213 3.5 7.8 0.00 0.00 0.00 80 1008.8
20260506093311 59 222 3.5 8.7 0.00 0.00 0.00 80 1008.8
20260506092802 60 195 3.5 9.6 0.00 0.00 0.00 79 1009.1
20260506091754 60 198 3.5 9.6 0.00 0.00 0.00 79 1009.1
20260506090310 60 170 3.5 6.1 0.00 0.00 0.00 78 1009.1
20260506085305 60 225 4.3 9.6 0.00 0.00 0.00 78 1009.1
20260506084303 60 199 3.5 7.8 0.00 0.00 0.00 78 1009.1
20260506083742 60 208 4.3 14.8 0.00 0.00 0.00 77 1009.1
20260506082304 61 211 3.5 9.6 0.00 0.00 0.00 77 1009.1
20260506081301 61 212 4.3 14.8 0.00 0.00 0.00 77 1009.0
20260506080301 61 230 3.5 7.8 0.00 0.00 0.00 76 1009.0
20260506073301 62 139 3.5 8.7 0.00 0.00 0.00 75 1009.1
20260506072305 62 204 4.3 9.6 0.00 0.00 0.00 74 1008.9
20260506071301 62 153 4.3 12.2 0.00 0.00 0.00 73 1008.7
20260506070259 62 242 3.5 10.4 0.00 0.00 0.00 73 1008.7
20260506062244 63 188 5.2 12.2 0.00 0.00 0.00 70 1008.6
20260506061245 63 219 5.2 13.0 0.00 0.00 0.00 70 1008.4
20260506060245 63 202 4.3 10.4 0.00 0.00 0.00 69 1008.4
20260506051238 63 189 5.2 13.0 0.00 0.00 0.00 68 1008.8
20260506050238 63 169 4.3 10.4 0.00 0.00 0.00 68 1008.8
20260506050151 63 201 3.5 8.7 0.00 0.00 0.00 69 1008.8
20260506044234 63 170 4.3 12.2 0.00 0.00 0.00 68 1009.0
20260506043232 63 222 3.5 10.4 0.00 0.00 0.00 68 1009.0
20260506042233 63 212 3.5 7.8 0.00 0.00 0.00 68 1009.0
20260506041233 63 197 4.3 12.2 0.00 0.00 0.00 67 1009.0